Weather in Ningbo

China     29°52′31″N   121°31′47″E
temp.,
°C
wind,
m/s
gust,
m/s
humid.,
%
clouds,
%
prec.,
mm/h
press.,
hPa
HPBL,
m
8 may, sat
sat823:00+19sse1182100 0.0 101238
02:00+20s2285100 0.0 101085
05:00+19sw1286100 0.0 100861
08:00+21s2482100 0.1 1009233
11:00+26ssw3465100 0.0 1009797
14:00+28sw2453100 0.0 10071306
17:00+28sse035831 0.0 1006635
20:00+22s23810 0.0 100888
9 may, sun
sun923:00+20s23860 0.0 100986
02:00+19s23890 0.0 100867
05:00+19ssw22880 0.0 100931
08:00+25sse22640 0.0 1010278
11:00+31sse34400 0.0 10091207
14:00+32s44290 0.0 10071358
17:00+29se58460 0.0 1006470
20:00+22sse38810 0.0 1008246
10 may, mon
mon1023:00+20sse399315 0.0 1008298
02:00+21s512906 0.0 1006579
05:00+19s269816 0.0 1005155
08:00+25s35740 0.0 1006408
11:00+31s22500 0.0 1005940
14:00+32ene325038 0.0 10031125
17:00+27ne2468100 0.0 1003262
20:00+25se2280100 0.3 100457
11 may, tue
tue1123:00+23wnw1288100 0.6 100547
02:00+22s2288100 1.2 100552
05:00+21ssw1288100 0.6 100531
08:00+22se1390100 1.9 1006115
11:00+23sse1285100 0.1 1007131
14:00+26e0170100 0.1 1005479
17:00+23ne1289100 0.6 100687
20:00+22ese1194100 0.9 100638
12 may, wed
wed1223:00+21e1299100 11.8 100787
02:00+21sse1299100 24.8 1006144
05:00+21sse1199100 0.4 100632
08:00+21s1298100 2.6 1007131
11:00+24ssw2286100 1.6 1006429
14:00+26nnw1282100 5.4 1004575
17:00+24ne2293100 1.2 1005280
20:00+21se1199100 3.4 100692